Regional Weather Roundup
Issued by NWS

Home | Current Version | Previous Version | Graphics & Text | Print | Product List | Glossary On
Versions: 1 2 3 4 5 6 7 8 9 10 11 12 13 14 15 16 17 18 19 20 21 22 23 24 25 26 27 28 29 30 31 32 33 34 35 36 37 38 39 40 41 42 43 44 45 46 47 48 49 50
000
ASUS43 KLMK 261610
RWRKY
KENTUCKY REGIONAL WEATHER ROUNDUP
NATIONAL WEATHER SERVICE LOUISVILLE KY
1200 PM EDT THU APR 26 2018

NOTE "FAIR" INDICATES FEW OR NO CLOUDS BELOW 12,000 FEET
WITH NO SIGNIFICANT WEATHER AND/OR OBSTRUCTIONS TO VISIBILITY.

KYZ001>023-026-027-061>063-070>075-261700-
WESTERN AND SOUTH CENTRAL KENTUCKY

CITY           SKY/WX    TMP DP  RH WIND       PRES   REMARKS
PADUCAH        CLOUDY    56  43  61 NE7       29.91R
HENDERSON      FAIR      60  39  45 NE8       29.92F
OWENSBORO      FAIR      59  38  45 NE12      29.92F
HOPKINSVILLE   PTSUNNY   57  55  94 NE6       29.89R
BOWLING GREEN  FAIR      62  54  74 S7        29.90F
GLASGOW        CLOUDY    61  51  70 S5        29.91S
$$

KYZ024-025-028>034-038-045-046-053-261700-
NORTH CENTRAL KENTUCKY

CITY           SKY/WX    TMP DP  RH WIND       PRES   REMARKS
LOUISVILLE/SDF CLOUDY    61  39  44 NW3       29.92F
LOUISVILLE/LOU FAIR      60  41  49 CALM      29.92F
FORT KNOX      FAIR      61  37  40 N3        29.92F
$$

KYZ035>037-039>044-047>052-055>060-089>105-261700-
NORTHEAST KENTUCKY

CITY           SKY/WX    TMP DP  RH WIND       PRES   REMARKS
LEXINGTON      FAIR      60  46  59 CALM      29.93S
COVINGTON      FAIR      60  39  45 CALM      29.92F
FRANKFORT      FAIR      61  43  51 CALM      29.91F
$$

KYZ054-064>069-076>088-106>120-261700-
SOUTHEAST KENTUCKY

CITY           SKY/WX    TMP DP  RH WIND       PRES   REMARKS
JACKSON        FAIR      60  49  66 VRB3      29.93S
LONDON         FAIR      58  50  75 S5        29.93S
SOMERSET       CLOUDY    57  46  67 S5        29.94S
MIDDLESBORO    PTSUNNY   57  48  72 CALM      29.95R
MONTICELLO     NOT AVBL
$$





USA.gov is the U.S. government's official web portal to all federal, state and local government web resources and services.